CZ-6A DEB

Satellite information

Favourite Embed

Satellite Type and Status

DEBRISDECAYED

Key statistics

Satellite CZ-6A DEB at a glance.

Uptime

1025

Days in orbit

Revolutions

≈ 15.6

Per day

Orbit

SSO

Sun Synchronous Orbit

Inclination

98.7

Latest

Satellite identification and parameters

Extended collection of information and parameters for CZ-6A DEB.

Object identification

Identified? True

Debris? True

Object name: CZ-6A DEB

International designator: 2022-151YX

Object number (NORAD): 55549

Object ID (CCSDS): 55549

Country: PEOPLES REPUBLIC OF CHINA (PRC)

Current information (Y/N): Y

RCS size: SMALL

Orbital parameters

Decay date: Sept. 1, 2025

Period: 92.208 minutes

Inclination: 98.685 deg

SMA: 6760.91 km

Apoapsis: 398.369 km

Periapsis: 367.182 km

RAAN: 311.1731 deg

Eccentricy: 0.00230644

Argument of periapsis: 273.891 deg

Mean anomaly: 85.9707 deg

Mean motion: 15.61690625 rev/day

Mean motion (dot): 0.01709167 rev/day2

B* drag term: 0.017325583 1/REarth

Two-line elements (TLE)

Creation date: Sept. 23, 2025, 3:43 a.m.

Reference frame: TEME

Reference center: EARTH

Epoch: Aug. 27, 2025, 4:18 p.m. UTC

TLE line 0: 0 CZ-6A DEB

TLE line 1: 1 55549U 22151YX 25239.67943778 .01709167 00000-0 17326-1 0 9992

TLE line 2: 2 55549 98.6850 311.1731 0023064 273.8910 85.9707 15.61690625143070

Live tracking on map

Satellite CZ-6A DEB has decayed and is no longer in orbit. No tracking available.

In-orbit conjunctions

Satellite CZ-6A DEB has decayed and is no longer in orbit. No conjunctions available.

Associated space launch

Chinese satellite reported for atmospheric/ocean/environmental/spatial parameter research purposes, details TBD.

CZ-6A DEB was lifted into orbit during the mission ‘Long March 6A | Yunhai 3’, on board a Long March 6A space rocket.

The launch took place on Nov. 11, 2022, 10:52 p.m. from Launch Complex 9A.

For more information about the launch, click the button.

Launch to space Long March 6A | Yunhai 3
Long March 6A | Yunhai 3

Agency: N/A

Status: Launch Successful

Launch date: Nov. 11, 2022, 10:52 p.m. UTC

Rocket: Long March 6A

Launch pad: Launch Complex 9A

Location: Taiyuan Satellite Launch Center, People's Republic of China

...

Latest news about this satellite

There are no fresh news available about this satellite. Check back as we update our databases every day.


Newsletter sign-up

Weekly statistics, charts and insights to help you stay on top of the space industry.